Regional Weather Roundup
Issued by NWS

Home | Current Version | Previous Version | Text Only | Print | Product List | Glossary Off
Versions: 1 2 3 4 5 6 7 8 9 10 11 12 13 14 15 16 17 18 19 20 21 22 23 24 25 26 27 28 29 30 31 32 33 34 35 36 37 38 39 40 41 42 43 44 45 46 47 48 49 50

000
ASUS46 KLOX 271213
RWRCA

SOUTHERN CALIFORNIA WEATHER ROUNDUP
NATIONAL WEATHER SERVICE OXNARD CALIFORNIA
500 AM PDT THU APR 27 2017

NOTE: "FAIR" INDICATES FEW OR NO CLOUDS BELOW 12,000 FEET WITH NO
SIGNIFICANT WEATHER AND/OR OBSTRUCTIONS TO VISIBILITY.

  -  STATIONS PRECEEDED BY AN ASTERISK (*) ARE NOT NWS OR FAA
     STATIONS AND ARE NOT SUBJECT TO NWS AND FAA QUALITY CONTROL.

CAZ041-042-087-271300-
LA AND ORANGE COUNTY COASTAL AREAS


CITY           SKY/WX    TMP DP  RH WIND       PRES   REMARKS
L.A. DOWNTOWN  MOCLDY    62  57  83 CALM      29.80S
L.A. AIRPORT   PTCLDY    58  55  90 SE5       29.80F
LONG BEACH     CLOUDY    59  55  87 CALM      29.81S

CITY           SKY/WX    TMP DP  RH WIND       PRES   REMARKS
AVALON           N/A     55 N/A N/A MISG        N/A
FULLERTON      CLOUDY    62  56  80 SE7       29.80F
*GETTY CENTER    N/A     64  46  52 NE12G21     N/A
HAWTHORNE      PTCLDY    57  55  93 CALM      29.81S
*LEO CARRILLO    N/A     54  52  94 CALM        N/A
*LOS ALAMITOS  MOCLDY    55  54  94 CALM      29.80F
*REDONDO BEACH   N/A     55  52  89 CALM      29.80S
SANTA ANA      CLOUDY    61  57  87 SW6       29.81S
STA MONICA APT PTCLDY    57  55  93 SE3       29.80F
*UCLA            N/A     59  54  82 NE1       29.77F

$$

CAZ547-548-048-271300-
LA COUNTY VALLEYS AND INLAND EMPIRE


CITY           SKY/WX    TMP DP  RH WIND       PRES   REMARKS
BURBANK        CLEAR     60  54  80 SE8       29.79F
VAN NUYS       CLEAR     68  48  48 N18G26    29.79S

CITY           SKY/WX    TMP DP  RH WIND       PRES   REMARKS
CORONA AIRPORT MOSUNNY   51  50  96 CALM      29.82F
*CHATSWORTH      N/A     66  49  54 N5        29.76S
CHINO          PTCLDY    56  53  90 CALM      29.82F
*CLAREMONT       N/A     52  50  93 N3          N/A
MARCH AFB      PTCLDY    47  47  99 CALM      29.82
*NORTHRIDGE      N/A     66  45  45 N7G16       N/A
ONTARIO        MOCLDY    56  52  86 W5        29.81F
*PASADENA        N/A     59  57  94 E1          N/A
RIVERSIDE      PTCLDY    56  54  93 CALM      29.81F
SAN BERNARDINO FAIR      56  47  71 CALM      29.82S
*SAUGUS          N/A     63  47  55 NE9G28      N/A
*WHITEMAN AP   NOT AVBL
*WOODLAND HILL   N/A     66  46  48 VRB5G13     N/A

$$

CAZ054-055-271300-
LA AND SAN BERNARDINO COUNTY MOUNTAINS


CITY           SKY/WX    TMP DP  RH WIND       PRES   REMARKS
*ACTON           N/A     58  44  60 S9G25       N/A
*BIG BEAR AIRP MOSUNNY   50  10  20 W13G23    29.94F
*BIG PINES       N/A     48  21  34 CALM        N/A
*CHILAO          N/A     49  35  58 W7G22       N/A
SANDBERG       CLOUDY    50  48  93 N25G38    29.95S
*WARM SPRINGS    N/A     52  52 100 W14G36      N/A

$$

CAZ028-029-059-060-099-271300-
ANTELOPE VALLEY AND SURROUNDING AREAS


CITY           SKY/WX    TMP DP  RH WIND       PRES   REMARKS
LANCASTER      PTCLDY    59  46  62 SW22G36   29.87S
PALMDALE       MOCLDY    59  47  64 W18       29.88S
*POPPY PARK      N/A     56  49  77 W28G40      N/A

CITY           SKY/WX    TMP DP  RH WIND       PRES   REMARKS
29 PALMS       PTCLDY    67  38  34 NW23G29   29.79F
BARSTOW/DAGGET PTCLDY    63  45  51 W21       29.79R
BISHOP         PTCLDY    54  24  31 NW18      29.84R
CHINA LAKE     CLEAR     57  37  47 CALM      29.72S
EDWARDS AFB    MOCLDY    60  44  55 W12G22    29.81R
MOJAVE         MOCLDY    57  46  67 W10       29.88F
NEEDLES        PTCLDY    72  43  35 CALM      29.64R
VICTORVILLE    MOCLDY    57  43  58 W18       29.83F

$$

CAZ039-040-271300-
VENTURA AND SANTA BARBARA COUNTY COAST


CITY           SKY/WX    TMP DP  RH WIND       PRES   REMARKS
CAMARILLO      CLEAR     56  52  86 CALM      29.80F
NWS OXNARD       N/A     66  51  57 CALM      29.81R
OXNARD AIRPORT CLEAR     55  52  89 CALM      29.81F
*POINT MUGU    CLEAR     55  52  89 CALM      29.81F
SBA APT/GOLETA CLEAR     57  53  86 SW9       29.81F
*SANTA BARBARA   N/A     60  50  69 NE5       29.87S
*VENTURA         N/A     54  51  90 CALM      29.79S

$$

CAZ044-045-271300-
VENTURA COUNTY VALLEYS


CITY           SKY/WX    TMP DP  RH WIND       PRES   REMARKS
*SIMI VALLEY     N/A     56  52  89 W2        29.75F
*WESTLAKE VILL   N/A     51  49  90 CALM      29.77F
*OJAI            N/A     52  48  85 CALM      29.74R
*FILLMORE        N/A     51  49  93 N1        29.84S

$$

CAZ053-271300-
VENTURA COUNTY MOUNTAINS


CITY           SKY/WX    TMP DP  RH WIND       PRES   REMARKS
*LOCKWOOD VLY    N/A     43  37  81 MISG        N/A
*FRAZIER MTN     N/A     32  28  86 CALM      29.66S
*ROSE VALLEY     N/A     50  37  62 MISG        N/A

$$

CAZ034-035-036-271300-
CENTRAL COAST AND SANTA YNEZ VALLEY


CITY           SKY/WX    TMP DP  RH WIND       PRES   REMARKS
SAN LUIS OBISP CLEAR     53  51  93 NW16      29.95R
SANTA MARIA    CLOUDY    50  50 100 NW8       29.94S

CITY           SKY/WX    TMP DP  RH WIND       PRES   REMARKS
*LOMPOC        CLOUDY    53  51  93 NW14G20   29.93S
*PISMO BEACH     N/A     57  53  87 NW2       29.94F
*SANTA YNEZ    CLOUDY    52  52 100 W6        29.89S

$$

CAZ037-038-051-271300-
SAN LUIS OBISPO COUNTY INTERIOR AND CUYAMA VALLEY


CITY           SKY/WX    TMP DP  RH WIND       PRES   REMARKS
*CUYAMA          N/A     56  51  84 CALM      29.88S
PASO ROBLES    MOCLDY    54  51  90 NW15      29.98R

$$

CAZ032-033-061-271300-
SOUTHERN DESERTS


CITY           SKY/WX    TMP DP  RH WIND       PRES   REMARKS
BLYTHE         PTCLDY    65  46  50 CALM      29.62S
IMPERIAL       CLEAR     69  47  45 W10       29.61S
PALM SPRINGS   PTCLDY    70  50  49 N7        29.65S
THERMAL        CLEAR     73  46  38 NW8       29.60S

$$

ELSEWHERE ACROSS THE WESTERN UNITED STATES AND MEXICO


CITY           SKY/WX    TMP DP  RH WIND       PRES   REMARKS
DEATH VALLEY,    N/A     78  31  18 NE6         N/A
DENVER, CO     CLOUDY    40  34  79 SW10      29.55F WCI  33
GRAND CANYON,  PTCLDY    45  31  58 W7        29.82F
HONOLULU, HI   PTCLDY    73  64  73 E6        30.03F
KAHULUI, MAUI  CLEAR     68  64  88 CALM      30.03F
LAKE TAHOE, CA PTCLDY    39  34  82 CALM      30.01R
LAS VEGAS, NV  MOCLDY    71  25  17 NW10G23   29.69R
MAMMOTH LAKES, FAIR      48   7  19 NW13G24   29.96R
MEXICO CITY, M PTCLDY    59  30  33 S3        30.20R
PHOENIX, AZ    PTCLDY    71  35  26 E6        29.65F
PORTLAND, OR   MOCLDY    43  39  86 SW6       30.13R
RENO, NV       MOCLDY    46  39  76 N13       29.98R
SALT LAKE CITY MOCLDY    43  31  62 NW18      29.80R WCI  35
SAN DIEGO, CA  MOCLDY    62  58  86 SW6       29.83F
SAN FRANCISCO, PTCLDY    53  49  86 W18       30.03S
SAN JOSE, CA   CLOUDY    55  49  80 NW7       30.04F
SEATTLE, WA    CLOUDY    44  39  82 S9        30.04R
TIJUANA, MEX   MOCLDY    57  50  77 CALM      29.85

$$

STATION/POSITION TIME  TEMP    WIND        PRES    VSBY  WAVE
                       AIR SEA DIR/SP/G                  HT/PER
                 (UTC) (F)     (DEG/KT/KT) (MB)    (MI)  (FT/S)
POINT ARGUELLO B NOT AVBL
WEST SANTA BARBA 1150   53 50  330/ 23/ 31 1012.9S         9/ 8
POINT CONCEPTION NOT AVBL
EAST SANTA BARBA 1150          290/ 19/ 23 1010.0F
SANTA MONICA BAY 1150   60 61  320/ 10/ 14 1009.3R         8/ 8



USA.gov is the U.S. government's official web portal to all federal, state and local government web resources and services.